Content
SEND FEEDBACK

Daily
Averages
Monthly
Summary
France

ORANGE, FRANCE


Home > Europe > France
Elevation: 197 feet     Latitude: 44 08N     Longitude: 004 52E

WEATHER
 
SELECT A DAY
Number of Records: 160,771;   Date Range: 12/3/98 - 12/27/14
 
SHARE

PRINT THIS DATA

[ ← Previous Day ]
WEATHER ALMANAC - JANUARY 31, 2013
[ Next Day → ]
[ °C ]   °F
Weather ElementAverageHighLow
Temperature50.8 °F57.2 °F (11:30 am)41 °F (11:00 pm)
Dewpoint42 °F46.4 °F (12:30 am)37.4 °F (11:00 pm)
Humidity72.7 %93 % (8:30 pm)55 % (11:30 am)
Barometer30.29 in30.33 in (5:30 am)30.24 in (12:30 am)
Wind Speed7.1 mph19.6 mph (3:00 am)
Weather ElementAverage
Visibility6.1 mi
Wind DirectionSW (229.1 °)

Weather ElementTotal
Precipitation---
Heating Degree Days15.9 (Base 65)
Averaged from 47 records on January 31, 2013
WEATHER CONDITIONS BREAKOUT
WIND DIRECTION BREAKOUT
WEATHER BY HOUR - JANUARY 31, 2013
[ °C ]   °F
Local TimeTemperatureDewpointHumidityBarometerVisibilityWind DirectionWind SpeedGust SpeedPrecipitationEventsConditions
12:30 AM53.6 °F46.4 °F77 %30.24 in6.2 miNW (310°)8.1 mph
1:00 AM51.8 °F42.8 °F71 %30.27 in6.2 miNW (320°)6.9 mph
1:30 AM55.4 °F46.4 °F72 %30.27 in6.2 miNorth (350°)13.8 mphMostly Cloudy
2:00 AM55.4 °F44.6 °F67 %30.27 in6.2 miNorth (350°)15.0 mphMostly Cloudy
2:30 AM55.4 °F44.6 °F67 %30.27 in6.2 miNorth (350°)13.8 mphMostly Cloudy
3:00 AM55.4 °F42.8 °F63 %30.30 in6.2 miNorth (350°)19.6 mph
3:30 AM53.6 °F42.8 °F67 %30.30 in6.2 miNorth (350°)19.6 mph
4:00 AM53.6 °F41.0 °F62 %30.30 in6.2 miNNW (340°)18.4 mph
4:30 AM51.8 °F41.0 °F67 %30.30 in6.2 miNNW (330°)18.4 mph
5:00 AM51.8 °F41.0 °F67 %30.30 in6.2 miNW (320°)15.0 mph
5:30 AM50.0 °F42.8 °F76 %30.33 in6.2 miNW (320°)11.5 mph
6:00 AM50.0 °F42.8 °F76 %30.30 in6.2 miNNW (330°)15.0 mph
6:30 AM50.0 °F41.0 °F71 %30.30 in6.2 miWNW (300°)9.2 mph
7:00 AM50.0 °F41.0 °F71 %30.33 in6.2 miNW (320°)11.5 mph
7:30 AM48.2 °F39.2 °F71 %30.33 in6.2 miNNW (340°)10.4 mph
8:00 AM46.4 °F39.2 °F76 %30.33 in6.2 miNNW (340°)8.1 mph
8:30 AM46.4 °F41.0 °F81 %30.33 in6.2 miNorth (360°)8.1 mph
9:00 AM48.2 °F41.0 °F76 %30.33 in6.2 miNorth (10°)9.2 mph
9:30 AM51.8 °F42.8 °F71 %30.33 in6.2 miNNW (330°)4.6 mph
10:00 AM51.8 °F42.8 °F71 %30.33 in6.2 miNNE (20°)3.5 mph
10:30 AM53.6 °F42.8 °F67 %30.33 in6.2 miNorth (360°)4.6 mph
11:00 AM55.4 °F42.8 °F63 %30.33 in6.2 miNorth (350°)5.8 mph
11:30 AM57.2 °F41.0 °F55 %30.33 in6.2 miNNE (30°)3.5 mph
12:00 PM55.4 °F41.0 °F58 %30.33 in6.2 miNorth (360°)5.8 mph
12:30 PM57.2 °F41.0 °F55 %30.33 in6.2 miNorth (360°)4.6 mph
1:00 PM53.6 °F42.8 °F67 %30.30 in6.2 miWest (260°)5.8 mph
1:30 PM55.4 °F44.6 °F67 %30.33 in6.2 miWest (280°)8.1 mph
2:00 PM55.4 °F42.8 °F63 %30.30 in6.2 miWest (280°)5.8 mph
2:30 PM55.4 °F42.8 °F63 %30.30 in6.2 miWest (270°)3.5 mphOvercast
3:00 PM55.4 °F41.0 °F58 %30.27 in6.2 miWNW (290°)3.5 mph
3:30 PM55.4 °F42.8 °F63 %30.27 in6.2 miVariable2.3 mphOvercast
4:00 PM55.4 °F42.8 °F63 %30.27 in6.2 miVariable2.3 mphOvercast
4:30 PM57.2 °F42.8 °F59 %30.27 in6.2 miNorth (10°)3.5 mphOvercast
5:00 PM55.4 °F44.6 °F67 %30.27 in5.0 miCalmMostly Cloudy
5:30 PM51.8 °F44.6 °F76 %30.27 in6.2 miVariable3.5 mphScattered Clouds
6:00 PM50.0 °F42.8 °F76 %30.27 in6.2 miCalm
6:30 PM46.4 °F41.0 °F81 %30.27 in6.2 miEast (90°)3.5 mph
7:00 PM46.4 °F42.8 °F87 %30.27 in6.2 miENE (70°)2.3 mph
7:30 PM44.6 °F41.0 °F87 %30.27 in6.2 miNNE (20°)3.5 mph
8:00 PM44.6 °F41.0 °F87 %30.27 in5.0 miNNW (340°)1.2 mph
8:30 PM42.8 °F41.0 °F93 %30.27 in5.6 miVariable2.3 mph
9:00 PM42.8 °F39.2 °F87 %30.27 in6.2 miNNW (340°)3.5 mph
9:30 PM42.8 °F41.0 °F93 %30.27 in5.6 miNW (320°)2.3 mph
10:00 PM42.8 °F41.0 °F93 %30.27 in5.6 miVariable1.2 mph
10:30 PM42.8 °F39.2 °F87 %30.24 in6.2 miCalm
11:00 PM41.0 °F37.4 °F87 %30.24 in6.2 miNNW (340°)5.8 mph
11:30 PM41.0 °F39.2 °F93 %30.24 in6.2 miNorth (360°)4.6 mph
Hourly data recorded from LFMO, located miles away from Orange, France







STORIES FROM OUR PARTNERS